Terminal Aerodrome Forecast
Issued by NWS La Crosse, WI

Home | Current Version | Previous Version | Text Only | Print | Product List | Glossary On
Versions: 1 2 3 4 5 6 7 8 9 10 11 12 13 14 15 16 17 18 19 20 21 22
000
FTUS43 KARX 172320
TAFLSE
TAF
KLSE 172320Z 1800/1824 21015KT P6SM SKC WS020/25046KT
     FM180500 21010KT P6SM SKC=

USA.gov is the U.S. government's official web portal to all federal, state and local government web resources and services.